sat.trackr.live / text

‹ back to catalog

STARLINK-32707

NORAD 62478 · 2024-254S

PAYLOAD ACTIVE UNKNOWN

§ Identity

Operator
Country
US
Launch date
2024-12-31
Launch site
AFETR
Launch vehicle
Mass (kg)
RCS (m²)

Purposes: comms

External: N2YO · Heavens-Above · Gunter

§ Orbital elements

Epoch: 2026-09-21T12:39:08.300160Z

Period
94.27 min
Inclination
42.9994°
Eccentricity
0.0000616
Mean motion
15.27591440 rev/d
Perigee alt
482.6 km
Apogee alt
483.4 km
Semi-major
6,861.2 km
B*
3.9261e-4
RAAN
350.3910°
Arg perigee
229.5400°
Mean anomaly
130.5398°
Rev number
9,760

§ Raw data

STARLINK-327071 62478U 24254S   26264.52717940  .00010561  00000+0  39261-3 0  99952 62478  42.9994 350.3910 0000616 229.5400 130.5398 15.27591440 97601

JSON: /api/v1/satellites/62478 · /tle

For live sub-satellite position, see the globe view (requires WebGL).

§ Visibility from observer

Set your observer location to see the next 7 days of passes ≥ 10°. The values pass through the URL so the page stays shareable.

No JS? Fill the form by hand. The geolocation button needs JavaScript.